When you browse on this site, cookies collect data to enhance your experience and personalize the content and advertising you see.
Visit our Privacy Policy to learn more. By continuing to use the site, you agree to this use of cookies and data.
  • In France
  • List of Countries
  • For 7 days
  • Water Temperature
  • Weather Map
  • Weather Widgets
  • user-avatar
    Login

    Hourly Weather Makadi Bey

    Today, 26 August, Monday

    Time Temperature Precipitation Wind Pressure Humidity
    00:00 +27°C° 0 mm 1 mps 703 mmHg 34%
    01:00 +27°C° 0 mm 1 mps 703 mmHg 34%
    02:00 +27°C° 0 mm 1 mps 703 mmHg 34%
    03:00 +26°C° 0 mm 1 mps 703 mmHg 34%
    04:00 +26°C° 0 mm 1 mps 703 mmHg 34%
    05:00 +25°C° 0 mm 1 mps 703 mmHg 34%
    06:00 +28°C° 0 mm 1 mps 704 mmHg 29%
    07:00 +31°C° 0 mm 2 mps 704 mmHg 24%
    08:00 +35°C° 0 mm 2 mps 705 mmHg 19%
    09:00 +36°C° 0 mm 3 mps 705 mmHg 16%
    10:00 +38°C° 0 mm 3 mps 705 mmHg 14%
    11:00 +41°C° 0 mm 4 mps 706 mmHg 12%
    12:00 +41°C° 0 mm 4 mps 705 mmHg 11%
    13:00 +42°C° 0 mm 4 mps 705 mmHg 11%
    14:00 +42°C° 0 mm 5 mps 704 mmHg 10%
    15:00 +41°C° 0 mm 5 mps 704 mmHg 11%
    16:00 +41°C° 0 mm 5 mps 704 mmHg 12%
    17:00 +40°C° 0 mm 5 mps 704 mmHg 13%
    18:00 +37°C° 0 mm 5 mps 704 mmHg 15%
    19:00 +35°C° 0 mm 5 mps 703 mmHg 18%
    20:00 +33°C° 0 mm 4 mps 703 mmHg 21%
    21:00 +32°C° 0 mm 4 mps 703 mmHg 21%
    22:00 +32°C° 0 mm 4 mps 704 mmHg 22%
    23:00 +30°C° 0 mm 4 mps 704 mmHg 23%

    Tomorrow, 27 August, Tuesday

    Time Temperature Precipitation Wind Pressure Humidity
    00:00 +30°C° 0 mm 4 mps 704 mmHg 23%
    01:00 +29°C° 0 mm 4 mps 703 mmHg 24%
    02:00 +29°C° 0 mm 3 mps 703 mmHg 24%
    03:00 +28°C° 0 mm 3 mps 703 mmHg 25%
    04:00 +27°C° 0 mm 2 mps 703 mmHg 26%
    05:00 +26°C° 0 mm 2 mps 703 mmHg 27%
    06:00 +29°C° 0 mm 2 mps 703 mmHg 25%
    07:00 +31°C° 0 mm 3 mps 704 mmHg 22%
    08:00 +34°C° 0 mm 4 mps 704 mmHg 20%
    09:00 +36°C° 0 mm 4 mps 705 mmHg 18%
    10:00 +38°C° 0 mm 4 mps 705 mmHg 15%
    11:00 +40°C° 0 mm 5 mps 705 mmHg 13%
    12:00 +41°C° 0 mm 5 mps 705 mmHg 12%
    13:00 +41°C° 0 mm 5 mps 705 mmHg 12%
    14:00 +42°C° 0 mm 5 mps 704 mmHg 11%
    15:00 +41°C° 0 mm 6 mps 704 mmHg 12%
    16:00 +41°C° 0 mm 6 mps 704 mmHg 12%
    17:00 +40°C° 0 mm 7 mps 703 mmHg 12%
    18:00 +38°C° 0 mm 6 mps 703 mmHg 15%
    19:00 +35°C° 0 mm 6 mps 703 mmHg 18%
    20:00 +33°C° 0 mm 6 mps 703 mmHg 22%
    21:00 +32°C° 0 mm 5 mps 703 mmHg 23%
    22:00 +30°C° 0 mm 5 mps 704 mmHg 24%
    23:00 +30°C° 0 mm 4 mps 704 mmHg 25%

    Day after tomorrow, 28 August, Wednesday

    Time Temperature Precipitation Wind Pressure Humidity
    00:00 +29°C° 0 mm 4 mps 703 mmHg 25%
    01:00 +29°C° 0 mm 4 mps 703 mmHg 26%
    02:00 +28°C° 0 mm 4 mps 703 mmHg 27%
    03:00 +28°C° 0 mm 3 mps 703 mmHg 29%
    04:00 +27°C° 0 mm 3 mps 703 mmHg 30%
    05:00 +26°C° 0 mm 2 mps 703 mmHg 32%
    06:00 +28°C° 0 mm 3 mps 703 mmHg 28%
    07:00 +32°C° 0 mm 4 mps 704 mmHg 24%
    08:00 +34°C° 0 mm 5 mps 704 mmHg 21%
    09:00 +35°C° 0 mm 5 mps 704 mmHg 17%
    10:00 +38°C° 0 mm 6 mps 704 mmHg 14%
    11:00 +39°C° 0 mm 6 mps 705 mmHg 11%
    12:00 +40°C° 0 mm 6 mps 704 mmHg 10%
    13:00 +41°C° 0 mm 6 mps 704 mmHg 9%
    14:00 +41°C° 0 mm 5 mps 703 mmHg 8%
    15:00 +41°C° 0 mm 6 mps 703 mmHg 9%
    16:00 +40°C° 0 mm 6 mps 703 mmHg 10%
    17:00 +39°C° 0 mm 7 mps 703 mmHg 11%
    18:00 +36°C° 0 mm 7 mps 703 mmHg 14%
    19:00 +34°C° 0 mm 6 mps 703 mmHg 17%
    20:00 +32°C° 0 mm 6 mps 703 mmHg 21%
    21:00 +30°C° 0 mm 5 mps 703 mmHg 22%
    22:00 +29°C° 0 mm 5 mps 703 mmHg 24%
    23:00 +29°C° 0 mm 4 mps 703 mmHg 26%

    29 August, Thursday

    Time Temperature Precipitation Wind Pressure Humidity
    00:00 +28°C° 0 mm 4 mps 703 mmHg 27%
    01:00 +28°C° 0 mm 4 mps 702 mmHg 28%
    02:00 +27°C° 0 mm 3 mps 702 mmHg 29%
    03:00 +26°C° 0 mm 3 mps 702 mmHg 32%
    04:00 +25°C° 0 mm 2 mps 702 mmHg 35%
    05:00 +24°C° 0 mm 1 mps 702 mmHg 38%
    06:00 +27°C° 0 mm 1 mps 702 mmHg 33%
    07:00 +29°C° 0 mm 2 mps 703 mmHg 29%
    08:00 +32°C° 0 mm 2 mps 704 mmHg 24%
    09:00 +35°C° 0 mm 2 mps 704 mmHg 22%
    10:00 +37°C° 0 mm 3 mps 704 mmHg 19%
    11:00 +38°C° 0 mm 3 mps 704 mmHg 16%
    12:00 +40°C° 0 mm 4 mps 704 mmHg 14%
    13:00 +41°C° 0 mm 4 mps 704 mmHg 13%
    14:00 +43°C° 0 mm 5 mps 703 mmHg 12%
    15:00 +42°C° 0 mm 5 mps 703 mmHg 13%
    16:00 +41°C° 0 mm 5 mps 703 mmHg 14%
    17:00 +40°C° 0 mm 5 mps 703 mmHg 15%
    18:00 +36°C° 0 mm 4 mps 703 mmHg 18%
    19:00 +34°C° 0 mm 3 mps 703 mmHg 22%
    20:00 +30°C° 0 mm 2 mps 702 mmHg 25%
    21:00 +30°C° 0 mm 3 mps 702 mmHg 25%
    22:00 +29°C° 0 mm 3 mps 702 mmHg 25%
    23:00 +29°C° 0 mm 4 mps 702 mmHg 26%

    30 August, Friday

    Time Temperature Precipitation Wind Pressure Humidity
    00:00 +29°C° 0 mm 4 mps 702 mmHg 26%
    01:00 +28°C° 0 mm 4 mps 702 mmHg 27%
    02:00 +28°C° 0 mm 4 mps 701 mmHg 27%
    03:00 +27°C° 0 mm 3 mps 701 mmHg 30%
    04:00 +26°C° 0 mm 3 mps 701 mmHg 32%
    05:00 +25°C° 0 mm 2 mps 701 mmHg 35%
    06:00 +28°C° 0 mm 2 mps 702 mmHg 31%
    07:00 +30°C° 0 mm 2 mps 702 mmHg 26%
    08:00 +32°C° 0 mm 2 mps 703 mmHg 22%
    09:00 +35°C° 0 mm 2 mps 703 mmHg 19%
    10:00 +37°C° 0 mm 2 mps 703 mmHg 16%
    11:00 +39°C° 0 mm 2 mps 704 mmHg 12%
    12:00 +40°C° 0 mm 3 mps 703 mmHg 12%
    13:00 +42°C° 0 mm 4 mps 703 mmHg 11%
    14:00 +43°C° 0 mm 5 mps 703 mmHg 10%
    15:00 +42°C° 0 mm 5 mps 702 mmHg 11%
    16:00 +41°C° 0 mm 5 mps 702 mmHg 12%
    17:00 +41°C° 0 mm 4 mps 702 mmHg 12%
    18:00 +37°C° 0 mm 5 mps 702 mmHg 15%
    19:00 +35°C° 0 mm 5 mps 702 mmHg 17%
    20:00 +32°C° 0 mm 5 mps 702 mmHg 20%
    21:00 +32°C° 0 mm 5 mps 702 mmHg 21%
    22:00 +30°C° 0 mm 5 mps 701 mmHg 23%
    23:00 +29°C° 0 mm 5 mps 701 mmHg 24%

    31 August, Saturday

    Time Temperature Precipitation Wind Pressure Humidity
    00:00 +28°C° 0 mm 4 mps 701 mmHg 26%
    01:00 +28°C° 0 mm 4 mps 701 mmHg 27%
    02:00 +27°C° 0 mm 3 mps 700 mmHg 29%
    03:00 +26°C° 0 mm 3 mps 700 mmHg 31%
    04:00 +25°C° 0 mm 2 mps 700 mmHg 34%
    05:00 +25°C° 0 mm 2 mps 700 mmHg 37%
    06:00 +27°C° 0 mm 2 mps 701 mmHg 33%
    07:00 +29°C° 0 mm 1 mps 701 mmHg 29%
    08:00 +31°C° 0 mm 1 mps 702 mmHg 25%
    09:00 +34°C° 0 mm 1 mps 702 mmHg 21%
    10:00 +37°C° 0 mm 2 mps 702 mmHg 17%
    11:00 +39°C° 0 mm 2 mps 703 mmHg 13%
    12:00 +40°C° 0 mm 3 mps 702 mmHg 12%
    13:00 +42°C° 0 mm 4 mps 702 mmHg 11%
    14:00 +43°C° 0 mm 5 mps 702 mmHg 10%
    15:00 +42°C° 0 mm 6 mps 702 mmHg 10%
    16:00 +41°C° 0 mm 6 mps 701 mmHg 11%
    17:00 +41°C° 0 mm 6 mps 701 mmHg 11%
    18:00 +38°C° 0 mm 6 mps 701 mmHg 13%
    19:00 +35°C° 0 mm 6 mps 701 mmHg 14%
    20:00 +32°C° 0 mm 7 mps 702 mmHg 15%
    21:00 +30°C° 0 mm 6 mps 701 mmHg 17%
    22:00 +29°C° 0 mm 5 mps 701 mmHg 18%
    23:00 +28°C° 0 mm 4 mps 701 mmHg 20%
    Show more